{"data":{"norad_id":64879,"epoch":"2026-05-25T03:48:54.309024Z","epoch_age_seconds":55103,"freshness":"FRESH","line1":"1 64879U 25155D   26145.15896191  .00009189  00000+0  32232-3 0  9991","line2":"2 64879  97.4541 113.6322 0005633 254.6382 105.4236 15.29649107 77246","mean_motion":15.29649107,"eccentricity":0.0005633,"inclination_deg":97.4541,"raan_deg":113.6322,"arg_perigee_deg":254.6382,"mean_anomaly_deg":105.4236,"bstar":0.00032232,"rev_number":7724,"period_min":94.139237123746,"perigee_km":472.99901020268,"apogee_km":480.7218503076,"semimajor_km":6854.9974302551,"source":"CELESTRAK","updated_at":"2026-05-25T13:38:23.326536Z"}}